sat.trackr.live / text

‹ back to catalog

STARLINK-36214

NORAD 67129 · 2025-299AD

PAYLOAD ACTIVE UNKNOWN

§ Identity

Operator
Country
US
Launch date
2025-12-15
Launch site
AFETR
Launch vehicle
Mass (kg)
RCS (m²)

Purposes: comms

External: N2YO · Heavens-Above · Gunter

§ Orbital elements

Epoch: 2026-05-25T04:49:27.588864Z

Period
94.27 min
Inclination
43.0018°
Eccentricity
0.0001636
Mean motion
15.27591234 rev/d
Perigee alt
481.9 km
Apogee alt
484.1 km
Semi-major
6,861.2 km
B*
5.8370e-4
RAAN
97.2371°
Arg perigee
268.6006°
Mean anomaly
91.4658°
Rev number
2,481

§ Raw data

STARLINK-362141 67129U 25299AD  26145.20101376  .00015840  00000+0  58370-3 0  99932 67129  43.0018  97.2371 0001636 268.6006  91.4658 15.27591234 24813

JSON: /api/v1/satellites/67129 · /tle

For live sub-satellite position, see the globe view (requires WebGL).

§ Visibility from observer

Set your observer location to see the next 7 days of passes ≥ 10°. The values pass through the URL so the page stays shareable.

No JS? Fill the form by hand. The geolocation button needs JavaScript.